{"data":{"norad_id":63950,"intl_designator":"2025-098AA","name":"STARLINK-33962","alt_names":[],"object_type":"PAYLOAD","status":"ACTIVE","operator":null,"country":"US","launch_date":"2025-05-13","launch_site_code":"AFWTR","launch_vehicle":null,"mission":null,"orbit_class":"UNKNOWN","rcs_meters":null,"size_class":null,"mass_kg":null,"dimensions":null,"purposes":["comms"],"wikipedia_slug":null,"has_3d_model":false,"image_url":null,"decayed_at":null,"tle_current":{"epoch":"2026-05-25T02:53:51.489312Z","epoch_age_seconds":54840,"freshness":"FRESH","line1":"1 63950U 25098AA  26145.12073483 -.00140057  00000+0 -12119-1 0  9996","line2":"2 63950  70.0008  81.6409 0006270 324.1692  35.9045 14.97822181 57999","mean_motion":14.97822181,"eccentricity":0.000627,"inclination_deg":70.0008,"raan_deg":81.6409,"arg_perigee_deg":324.1692,"mean_anomaly_deg":35.9045,"bstar":-0.012119,"rev_number":5799,"period_min":96.13958307378,"perigee_km":569.26796712551,"apogee_km":577.98547883413,"semimajor_km":6951.7637229798,"source":"CELESTRAK","updated_at":"2026-05-25T13:38:20.209299Z"}}}